Location: �quirre
(50.4736°N, 2.2351°E)
Time: 17:51:55
(UTC+00:00)

Landsat 5 - Pass Details

Date: 07 August 2020
Orbit: 529 x 654 km, 98.2° (Epoch: 25 September)

Event Time Altitude Azimuth Distance (km) Brightness Sun altitude
Rises 03:19:33 0° 165° (SSE) 2,681 6.6 -9.8°
Reaches altitude 10° 03:21:37 10° 166° (SSE) 1,806 5.7 -9.6°
Maximum altitude 03:25:31 85° 254° (WSW) 564 3.3 -9.1°
Drops below altitude 10° 03:29:36 10° 345° (NNW) 1,884 6.4 -8.6°
Sets 03:31:47 0° 346° (NNW) 2,808 7.3 -8.3°
